User: anonymous   Login
Location: Montr�al
(45.5000°N, 73.5830°W)
Time: 17:55:24
(UTC-04:00)
Language:

Cosmos 1470 Rocket - Orbit

View from above orbital plane
View from above orbital plane
View from above satellite
View from above satellite

Ground track
Ground track

The orbit data is extracted from the following two-line orbital elements,

1 14148U 83061B   18146.57485409  .00000071  00000-0  58114-5 0  9990
2 14148  82.5171 307.9503 0020069 282.0030 145.5320 14.83274329885748
Epoch (UTC): 26 May 2018 13:47:47
Eccentricity: 0.0020069
inclination: 82.5171°
perigee height: 605 km
apogee height: 633 km
right ascension of ascending node: 307.9503°
argument of perigee: 282.0030°
revolutions per day: 14.83274329
mean anomaly at epoch: 145.5320°
orbit number at epoch: 88574

The dashed part of the orbit path shows where the satellite is in the earth's shadow,  

DLR